Simultaneous Nadir Overpasses (SNOs) Predictions

Prediction of SNOs between NOAA-20 and NOAA-19 Satellite Orbit:

Table of predicted SNOs for the next 14.0 days since TLE Epoch: 6/1/2024
Index Date (NOAA-20) Time (NOAA-20) Lat,Lon (NOAA-20) SZA (NOAA-20 ) Date (NOAA-19) Time (NOAA-19) Lat,Lon (NOAA-19) SZA (NOAA-19 ) Distance(km) Time Diff (sec)
1 06/09/2024 11:06:11 72.80, 5.17 49.92 06/09/2024 11:05:01 72.83, 3.46 50.07 56.36 70
2 06/09/2024 11:57:03 -73.21, 171.61 129.63 06/09/2024 11:55:56 -73.22, 171.58 129.61 1.51 67
3 06/09/2024 12:47:49 73.22, -21.10 50.38 06/09/2024 12:46:51 73.23, -21.14 50.40 1.58 58
4 06/09/2024 13:38:34 -73.28, 146.09 129.57 06/09/2024 13:37:53 -73.27, 146.20 129.57 3.48 41
5 06/09/2024 14:29:20 73.29, -46.62 50.44 06/09/2024 14:28:48 73.28, -46.52 50.44 3.32 32
6 06/09/2024 15:20:04 -73.29, 120.69 129.56 06/09/2024 15:19:51 -73.27, 120.70 129.58 2.56 13
7 06/09/2024 16:10:50 73.30, -72.02 50.45 06/09/2024 16:10:46 73.28, -72.01 50.43 2.62 4
8 06/09/2024 17:01:34 -73.31, 95.28 129.55 06/09/2024 17:01:48 -73.32, 95.33 129.54 1.92 14
9 06/09/2024 17:52:20 73.31, -97.43 50.46 06/09/2024 17:52:43 73.32, -97.38 50.47 1.83 23
10 06/09/2024 18:43:04 -73.32, 69.87 129.54 06/09/2024 18:43:46 -73.32, 69.83 129.55 1.42 42
11 06/09/2024 19:33:50 73.33,-122.83 50.47 06/09/2024 19:34:41 73.32,-122.88 50.46 1.42 51
12 06/09/2024 20:24:34 -73.33, 44.47 129.53 06/09/2024 20:25:43 -73.36, 44.46 129.51 3.16 69
13 06/09/2024 21:15:23 73.49,-148.58 50.65 06/09/2024 21:16:36 73.47,-148.02 50.58 17.93 73



Historial Predications of SNOs between NOAA-20 and NOAA-19
